Location: Scenic Heights
(38.0166°N, 120.2566°W)
Time: 23:04:02
(UTC+00:00)

Cosmos 2219 Rocket - Pass Details

Date: 03 August 2024
Orbit: 826 x 846 km, 71.0° (Epoch: 09 September)

Event Time Altitude Azimuth Distance (km) Brightness Sun altitude
Exits shadow 12:12:34 - 268° (W) 2,562 4.2 -10.2°
Reaches altitude 10° 12:13:02 10° 272° (W) 2,460 4.1 -10.2°
Maximum altitude 12:16:22 16° 308° (NW) 2,083 4.1 -9.6°
Drops below altitude 10° 12:19:44 10° 345° (NNW) 2,473 4.8 -9.0°
Sets 12:23:15 0° 7° (N) 3,414 5.9 -8.4°
